owner,sensor,date,latitude,longitude,vertical_datum,direction_of_sea_water_velocity,sea_water_speed,upward_sea_water_velocity,qcFlag 
TABS,ioos:station:wmo:42046:1,2007-06-01T00:00:00Z,27.8903,-94.0367,2.0,220.777464,9.508107067,-99999.0,'11133222,11111222,99999999' 
TABS,ioos:station:wmo:42046:1,2007-06-01T00:30:00Z,27.8903,-94.0367,2.0,217.1425853,10.91412388,-99999.0,'11111222,11111222,99999999' 
TABS,ioos:station:wmo:42046:1,2007-06-01T01:00:00Z,27.8903,-94.0367,2.0,232.9501044,13.39406585,-99999.0,'11111222,11111222,99999999' 
TABS,ioos:station:wmo:42046:1,2007-06-01T01:30:00Z,27.8903,-94.0367,2.0,238.7530828,15.28757011,-99999.0,'11111222,11111222,99999999' 
TABS,ioos:station:wmo:42046:1,2007-06-01T02:00:00Z,27.8903,-94.0367,2.0,247.5150102,17.59774133,-99999.0,'11111222,11111222,99999999' 
TABS,ioos:station:wmo:42046:1,2007-06-01T02:30:00Z,27.8903,-94.0367,2.0,250.1291088,19.56482814,-99999.0,'11111222,11111222,99999999' 
TABS,ioos:station:wmo:42046:1,2007-06-01T03:00:00Z,27.8903,-94.0367,2.0,251.7028132,22.29728459,-99999.0,'11111222,11111222,99999999' 
TABS,ioos:station:wmo:42046:1,2007-06-01T03:30:00Z,27.8903,-94.0367,2.0,253.7726279,22.07960371,-99999.0,'11111222,11111222,99999999' 
TABS,ioos:station:wmo:42046:1,2007-06-01T04:00:00Z,27.8903,-94.0367,2.0,258.2968779,23.17166589,-99999.0,'11111222,11111222,99999999' 
TABS,ioos:station:wmo:42046:1,2007-06-01T04:30:00Z,27.8903,-94.0367,2.0,262.1024405,26.78401202,-99999.0,'11111222,11111222,99999999' 
TABS,ioos:station:wmo:42046:1,2007-06-01T05:00:00Z,27.8903,-94.0367,2.0,263.2969484,27.93090045,-99999.0,'11111222,11111222,99999999' 
TABS,ioos:station:wmo:42046:1,2007-06-01T05:30:00Z,27.8903,-94.0367,2.0,267.0244609,31.98310804,-99999.0,'11111222,11111222,99999999' 
TABS,ioos:station:wmo:42046:1,2007-06-01T06:00:00Z,27.8903,-94.0367,2.0,267.5894535,33.52966,-99999.0,'11111222,11111222,99999999' 
TABS,ioos:station:wmo:42046:1,2007-06-01T06:30:00Z,27.8903,-94.0367,2.0,275.9411442,32.94694219,-99999.0,'11111222,11111222,99999999' 
TABS,ioos:station:wmo:42046:1,2007-06-01T07:00:00Z,27.8903,-94.0367,2.0,281.7930443,31.65819009,-99999.0,'11111222,11111222,99999999' 
TABS,ioos:station:wmo:42046:1,2007-06-01T07:30:00Z,27.8903,-94.0367,2.0,288.1709887,32.90068692,-99999.0,'11111222,11111222,99999999' 
TABS,ioos:station:wmo:42046:1,2007-06-01T08:00:00Z,27.8903,-94.0367,2.0,289.9834807,32.30497175,-99999.0,'11111222,11111222,99999999' 
TABS,ioos:station:wmo:42046:1,2007-06-01T08:30:00Z,27.8903,-94.0367,2.0,295.4478183,32.55887129,-99999.0,'11111222,11111222,99999999' 
TABS,ioos:station:wmo:42046:1,2007-06-01T09:00:00Z,27.8903,-94.0367,2.0,301.3331037,31.42262242,-99999.0,'11111222,11111222,99999999' 
TABS,ioos:station:wmo:42046:1,2007-06-01T09:30:00Z,27.8903,-94.0367,2.0,301.9855597,30.11136164,-99999.0,'11111222,11111222,99999999' 
TABS,ioos:station:wmo:42046:1,2007-06-01T10:00:00Z,27.8903,-94.0367,2.0,305.0020442,29.07945667,-99999.0,'11111222,11111222,99999999' 
TABS,ioos:station:wmo:42046:1,2007-06-01T10:30:00Z,27.8903,-94.0367,2.0,307.4477981,27.97542136,-99999.0,'11111222,11111222,99999999' 
TABS,ioos:station:wmo:42046:1,2007-06-01T11:00:00Z,27.8903,-94.0367,2.0,301.5900771,23.23258488,-99999.0,'11111222,11111222,99999999' 
TABS,ioos:station:wmo:42046:1,2007-06-01T11:30:00Z,27.8903,-94.0367,2.0,305.8134468,24.18211322,-99999.0,'11111222,11111222,99999999' 
TABS,ioos:station:wmo:42046:1,2007-06-01T12:00:00Z,27.8903,-94.0367,2.0,309.3064267,21.73764707,-99999.0,'11111222,11111222,99999999' 
TABS,ioos:station:wmo:42046:1,2007-06-01T12:30:00Z,27.8903,-94.0367,2.0,303.9054882,20.68768958,-99999.0,'11111222,11111222,99999999' 
TABS,ioos:station:wmo:42046:1,2007-06-01T13:00:00Z,27.8903,-94.0367,2.0,312.2966964,20.38736864,-99999.0,'11111222,11111222,99999999' 
TABS,ioos:station:wmo:42046:1,2007-06-01T13:30:00Z,27.8903,-94.0367,2.0,315.3682842,18.7175025,-99999.0,'11111222,11111222,99999999' 
TABS,ioos:station:wmo:42046:1,2007-06-01T14:00:00Z,27.8903,-94.0367,2.0,316.4796122,17.80381139,-99999.0,'11111222,11111222,99999999' 
TABS,ioos:station:wmo:42046:1,2007-06-01T14:30:00Z,27.8903,-94.0367,2.0,323.7715556,18.40915261,-99999.0,'11111222,11111222,99999999' 
TABS,ioos:station:wmo:42046:1,2007-06-01T15:00:00Z,27.8903,-94.0367,2.0,329.7132561,18.87645094,-99999.0,'11111222,11111222,99999999' 
TABS,ioos:station:wmo:42046:1,2007-06-01T15:30:00Z,27.8903,-94.0367,2.0,335.6658002,16.89063942,-99999.0,'11111222,11111222,99999999' 
TABS,ioos:station:wmo:42046:1,2007-06-01T16:00:00Z,27.8903,-94.0367,2.0,342.880797,17.6311826,-99999.0,'11111222,11111222,99999999' 
TABS,ioos:station:wmo:42046:1,2007-06-01T16:30:00Z,27.8903,-94.0367,2.0,347.6752208,16.16250599,-99999.0,'11111222,11111222,99999999' 
TABS,ioos:station:wmo:42046:1,2007-06-01T17:00:00Z,27.8903,-94.0367,2.0,349.3828878,15.25110488,-99999.0,'11111222,11111222,99999999' 
TABS,ioos:station:wmo:42046:1,2007-06-01T17:30:00Z,27.8903,-94.0367,2.0,358.1743564,14.43733009,-99999.0,'11111222,11111222,99999999' 
TABS,ioos:station:wmo:42046:1,2007-06-01T18:00:00Z,27.8903,-94.0367,2.0,12.69554551,14.92487856,-99999.0,'11111222,11111222,99999999' 
TABS,ioos:station:wmo:42046:1,2007-06-01T18:30:00Z,27.8903,-94.0367,2.0,19.6445768,12.2850234,-99999.0,'11111222,11111222,99999999' 
TABS,ioos:station:wmo:42046:1,2007-06-01T19:00:00Z,27.8903,-94.0367,2.0,8.285988107,12.4903803,-99999.0,'11111222,11111222,99999999' 
TABS,ioos:station:wmo:42046:1,2007-06-01T19:30:00Z,27.8903,-94.0367,2.0,3.375667752,11.20944691,-99999.0,'11111222,11111222,99999999' 
TABS,ioos:station:wmo:42046:1,2007-06-01T20:00:00Z,27.8903,-94.0367,2.0,10.80698434,10.72012127,-99999.0,'11111222,11111222,99999999' 
TABS,ioos:station:wmo:42046:1,2007-06-01T20:30:00Z,27.8903,-94.0367,2.0,33.6901992,9.734988444,-99999.0,'11133222,11111222,99999999' 
TABS,ioos:station:wmo:42046:1,2007-06-01T21:00:00Z,27.8903,-94.0367,2.0,56.79007283,7.613527435,-99999.0,'11133222,11111222,99999999' 
TABS,ioos:station:wmo:42046:1,2007-06-01T21:30:00Z,27.8903,-94.0367,2.0,81.40653907,5.420857866,-99999.0,'11133222,11111222,99999999' 
TABS,ioos:station:wmo:42046:1,2007-06-01T22:00:00Z,27.8903,-94.0367,2.0,136.2262198,4.625537807,-99999.0,'11133222,11111222,99999999' 
TABS,ioos:station:wmo:42046:1,2007-06-01T22:30:00Z,27.8903,-94.0367,2.0,132.3803521,3.249015235,-99999.0,'11133222,11111222,99999999' 
TABS,ioos:station:wmo:42046:1,2007-06-01T23:00:00Z,27.8903,-94.0367,2.0,195.999837,4.317244492,-99999.0,'11133222,11111222,99999999' 
TABS,ioos:station:wmo:42046:1,2007-06-01T23:30:00Z,27.8903,-94.0367,2.0,187.5561159,3.954339389,-99999.0,'11133222,11111222,99999999' 
TABS,ioos:station:wmo:42046:1,2007-06-02T00:00:00Z,27.8903,-94.0367,2.0,194.6288562,5.859974403,-99999.0,'11133222,11111222,99999999' 
TABS,ioos:station:wmo:42046:1,2007-06-02T00:30:00Z,27.8903,-94.0367,2.0,208.5228414,6.282547254,-99999.0,'11133222,11111222,99999999' 
TABS,ioos:station:wmo:42046:1,2007-06-02T01:00:00Z,27.8903,-94.0367,2.0,203.5445607,10.86449263,-99999.0,'11111222,11111222,99999999' 
TABS,ioos:station:wmo:42046:1,2007-06-02T01:30:00Z,27.8903,-94.0367,2.0,207.5609543,13.11875756,-99999.0,'11111222,11111222,99999999' 
TABS,ioos:station:wmo:42046:1,2007-06-02T02:00:00Z,27.8903,-94.0367,2.0,218.7279446,13.07487667,-99999.0,'11111222,11111222,99999999' 
TABS,ioos:station:wmo:42046:1,2007-06-02T02:30:00Z,27.8903,-94.0367,2.0,228.3981654,16.34169208,-99999.0,'11111222,11111222,99999999' 
TABS,ioos:station:wmo:42046:1,2007-06-02T03:00:00Z,27.8903,-94.0367,2.0,232.7625834,16.22833325,-99999.0,'11111222,11111222,99999999' 
TABS,ioos:station:wmo:42046:1,2007-06-02T03:30:00Z,27.8903,-94.0367,2.0,237.6046537,17.30274545,-99999.0,'11111222,11111222,99999999' 
TABS,ioos:station:wmo:42046:1,2007-06-02T04:00:00Z,27.8903,-94.0367,2.0,246.2664603,19.28056275,-99999.0,'11111222,11111222,99999999' 
TABS,ioos:station:wmo:42046:1,2007-06-02T04:30:00Z,27.8903,-94.0367,2.0,255.1265939,22.75226802,-99999.0,'11111222,11111222,99999999' 
TABS,ioos:station:wmo:42046:1,2007-06-02T05:00:00Z,27.8903,-94.0367,2.0,259.8027056,22.31242031,-99999.0,'11111222,11111222,99999999' 
TABS,ioos:station:wmo:42046:1,2007-06-02T05:30:00Z,27.8903,-94.0367,2.0,263.1824107,24.0097501,-99999.0,'11111222,11111222,99999999' 
TABS,ioos:station:wmo:42046:1,2007-06-02T06:00:00Z,27.8903,-94.0367,2.0,267.7703378,23.13751067,-99999.0,'11111222,11111222,99999999' 
TABS,ioos:station:wmo:42046:1,2007-06-02T06:30:00Z,27.8903,-94.0367,2.0,274.507649,26.72264208,-99999.0,'11111222,11111222,99999999' 
TABS,ioos:station:wmo:42046:1,2007-06-02T07:00:00Z,27.8903,-94.0367,2.0,278.868663,27.11413838,-99999.0,'11111222,11111222,99999999' 
TABS,ioos:station:wmo:42046:1,2007-06-02T07:30:00Z,27.8903,-94.0367,2.0,283.3616658,26.35332427,-99999.0,'11111222,11111222,99999999' 
TABS,ioos:station:wmo:42046:1,2007-06-02T08:00:00Z,27.8903,-94.0367,2.0,287.4932073,26.34849711,-99999.0,'11111222,11111222,99999999' 
TABS,ioos:station:wmo:42046:1,2007-06-02T08:30:00Z,27.8903,-94.0367,2.0,295.7076196,28.37888299,-99999.0,'11111222,11111222,99999999' 
TABS,ioos:station:wmo:42046:1,2007-06-02T09:00:00Z,27.8903,-94.0367,2.0,298.7050091,27.67050777,-99999.0,'11111222,11111222,99999999' 
TABS,ioos:station:wmo:42046:1,2007-06-02T09:30:00Z,27.8903,-94.0367,2.0,304.6221275,23.70824751,-99999.0,'11111222,11111222,99999999' 
TABS,ioos:station:wmo:42046:1,2007-06-02T10:00:00Z,27.8903,-94.0367,2.0,312.3345958,24.17385571,-99999.0,'11111222,11111222,99999999' 
TABS,ioos:station:wmo:42046:1,2007-06-02T10:30:00Z,27.8903,-94.0367,2.0,319.1492097,24.62943361,-99999.0,'11111222,11111222,99999999' 
TABS,ioos:station:wmo:42046:1,2007-06-02T11:00:00Z,27.8903,-94.0367,2.0,326.3489568,24.61482683,-99999.0,'11111222,11111222,99999999' 
TABS,ioos:station:wmo:42046:1,2007-06-02T11:30:00Z,27.8903,-94.0367,2.0,320.3230539,22.86744411,-99999.0,'11111222,11111222,99999999' 
TABS,ioos:station:wmo:42046:1,2007-06-02T12:00:00Z,27.8903,-94.0367,2.0,327.5595104,20.22640354,-99999.0,'11111222,11111222,99999999' 
TABS,ioos:station:wmo:42046:1,2007-06-02T12:30:00Z,27.8903,-94.0367,2.0,337.8899219,18.59765845,-99999.0,'11111222,11111222,99999999' 
TABS,ioos:station:wmo:42046:1,2007-06-02T13:00:00Z,27.8903,-94.0367,2.0,346.99631,18.44297698,-99999.0,'11111222,11111222,99999999' 
TABS,ioos:station:wmo:42046:1,2007-06-02T13:30:00Z,27.8903,-94.0367,2.0,347.871461,16.46759242,-99999.0,'11111222,11111222,99999999' 
TABS,ioos:station:wmo:42046:1,2007-06-02T14:00:00Z,27.8903,-94.0367,2.0,352.9976856,15.66686312,-99999.0,'11111222,11111222,99999999' 
TABS,ioos:station:wmo:42046:1,2007-06-02T14:30:00Z,27.8903,-94.0367,2.0,3.185855674,16.37530458,-99999.0,'11111222,11111222,99999999' 
TABS,ioos:station:wmo:42046:1,2007-06-02T15:00:00Z,27.8903,-94.0367,2.0,17.95162009,14.98972982,-99999.0,'11111222,11111222,99999999' 
TABS,ioos:station:wmo:42046:1,2007-06-02T15:30:00Z,27.8903,-94.0367,2.0,30.50383368,17.51400011,-99999.0,'11111222,11111222,99999999' 
TABS,ioos:station:wmo:42046:1,2007-06-02T16:00:00Z,27.8903,-94.0367,2.0,35.88853007,15.76231265,-99999.0,'11111222,11111222,99999999' 
TABS,ioos:station:wmo:42046:1,2007-06-02T16:30:00Z,27.8903,-94.0367,2.0,51.07137656,14.64145143,-99999.0,'11111222,11111222,99999999' 
TABS,ioos:station:wmo:42046:1,2007-06-02T17:00:00Z,27.8903,-94.0367,2.0,52.91545553,14.94210494,-99999.0,'11111222,11111222,99999999' 
TABS,ioos:station:wmo:42046:1,2007-06-02T17:30:00Z,27.8903,-94.0367,2.0,58.36826811,15.4444974,-99999.0,'11111222,11111222,99999999' 
TABS,ioos:station:wmo:42046:1,2007-06-02T18:00:00Z,27.8903,-94.0367,2.0,65.55984646,12.66485294,-99999.0,'11111222,11111222,99999999' 
TABS,ioos:station:wmo:42046:1,2007-06-02T18:30:00Z,27.8903,-94.0367,2.0,70.93201899,11.44814395,-99999.0,'11111222,11111222,99999999' 
TABS,ioos:station:wmo:42046:1,2007-06-02T19:00:00Z,27.8903,-94.0367,2.0,54.58643746,9.128948461,-99999.0,'11133222,11111222,99999999' 
TABS,ioos:station:wmo:42046:1,2007-06-02T19:30:00Z,27.8903,-94.0367,2.0,80.16645903,9.134199472,-99999.0,'11133222,11111222,99999999' 
TABS,ioos:station:wmo:42046:1,2007-06-02T20:00:00Z,27.8903,-94.0367,2.0,83.82983933,9.303897033,-99999.0,'11133222,11111222,99999999' 
TABS,ioos:station:wmo:42046:1,2007-06-02T20:30:00Z,27.8903,-94.0367,2.0,104.6819334,9.469192151,-99999.0,'11133222,11111222,99999999' 
TABS,ioos:station:wmo:42046:1,2007-06-02T21:00:00Z,27.8903,-94.0367,2.0,115.681646,8.122364188,-99999.0,'11133222,11111222,99999999' 
TABS,ioos:station:wmo:42046:1,2007-06-02T21:30:00Z,27.8903,-94.0367,2.0,105.8393984,8.170220315,-99999.0,'11133222,11111222,99999999' 
TABS,ioos:station:wmo:42046:1,2007-06-02T22:00:00Z,27.8903,-94.0367,2.0,139.2347011,9.479899788,-99999.0,'11133222,11111222,99999999' 
TABS,ioos:station:wmo:42046:1,2007-06-02T22:30:00Z,27.8903,-94.0367,2.0,150.3148548,10.68187718,-99999.0,'11111222,11111222,99999999' 
TABS,ioos:station:wmo:42046:1,2007-06-02T23:00:00Z,27.8903,-94.0367,2.0,145.0960073,7.986701447,-99999.0,'11133222,11111222,99999999' 
TABS,ioos:station:wmo:42046:1,2007-06-02T23:30:00Z,27.8903,-94.0367,2.0,155.7085211,12.73772743,-99999.0,'11111222,11111222,99999999' 
TABS,ioos:station:wmo:42046:1,2007-06-03T00:00:00Z,27.8903,-94.0367,2.0,161.6432279,13.87608734,-99999.0,'11111222,11111222,99999999' 
TABS,ioos:station:wmo:42046:1,2007-06-03T00:30:00Z,27.8903,-94.0367,2.0,166.9803163,13.80487595,-99999.0,'11111222,11111222,99999999' 
TABS,ioos:station:wmo:42046:1,2007-06-03T01:00:00Z,27.8903,-94.0367,2.0,181.2995518,11.90306263,-99999.0,'11111222,11111222,99999999' 
TABS,ioos:station:wmo:42046:1,2007-06-03T01:30:00Z,27.8903,-94.0367,2.0,182.2967238,14.47162741,-99999.0,'11111222,11111222,99999999' 
TABS,ioos:station:wmo:42046:1,2007-06-03T02:00:00Z,27.8903,-94.0367,2.0,182.8153396,12.82548245,-99999.0,'11111222,11111222,99999999' 
TABS,ioos:station:wmo:42046:1,2007-06-03T02:30:00Z,27.8903,-94.0367,2.0,195.5495573,10.74322577,-99999.0,'11111222,11111222,99999999' 
TABS,ioos:station:wmo:42046:1,2007-06-03T03:00:00Z,27.8903,-94.0367,2.0,198.0329926,12.17823058,-99999.0,'11111222,11111222,99999999' 
TABS,ioos:station:wmo:42046:1,2007-06-03T03:30:00Z,27.8903,-94.0367,2.0,204.0596916,10.74339332,-99999.0,'11111222,11111222,99999999' 
TABS,ioos:station:wmo:42046:1,2007-06-03T04:00:00Z,27.8903,-94.0367,2.0,207.7049557,11.01257917,-99999.0,'11111222,11111222,99999999' 
TABS,ioos:station:wmo:42046:1,2007-06-03T04:30:00Z,27.8903,-94.0367,2.0,213.1015973,13.23861775,-99999.0,'11111222,11111222,99999999' 
TABS,ioos:station:wmo:42046:1,2007-06-03T05:00:00Z,27.8903,-94.0367,2.0,221.1288373,15.18794588,-99999.0,'11111222,11111222,99999999' 
TABS,ioos:station:wmo:42046:1,2007-06-03T05:30:00Z,27.8903,-94.0367,2.0,230.7004437,12.31506801,-99999.0,'11111222,11111222,99999999' 
TABS,ioos:station:wmo:42046:1,2007-06-03T06:00:00Z,27.8903,-94.0367,2.0,239.4550534,13.59677168,-99999.0,'11111222,11111222,99999999' 
TABS,ioos:station:wmo:42046:1,2007-06-03T06:30:00Z,27.8903,-94.0367,2.0,256.4722849,16.92965446,-99999.0,'11111222,11111222,99999999' 
TABS,ioos:station:wmo:42046:1,2007-06-03T07:00:00Z,27.8903,-94.0367,2.0,271.733934,15.86726189,-99999.0,'11111222,11111222,99999999' 
TABS,ioos:station:wmo:42046:1,2007-06-03T07:30:00Z,27.8903,-94.0367,2.0,273.6279456,16.75356678,-99999.0,'11111222,11111222,99999999' 
TABS,ioos:station:wmo:42046:1,2007-06-03T08:00:00Z,27.8903,-94.0367,2.0,284.3518621,18.07402833,-99999.0,'11111222,11111222,99999999' 
TABS,ioos:station:wmo:42046:1,2007-06-03T08:30:00Z,27.8903,-94.0367,2.0,290.8140213,18.74315875,-99999.0,'11111222,11111222,99999999' 
TABS,ioos:station:wmo:42046:1,2007-06-03T09:00:00Z,27.8903,-94.0367,2.0,301.777279,19.93871861,-99999.0,'11111222,11111222,99999999' 
TABS,ioos:station:wmo:42046:1,2007-06-03T09:30:00Z,27.8903,-94.0367,2.0,310.5987985,22.0206108,-99999.0,'11111222,11111222,99999999' 
TABS,ioos:station:wmo:42046:1,2007-06-03T10:00:00Z,27.8903,-94.0367,2.0,315.7512252,19.9633389,-99999.0,'11111222,11111222,99999999' 
TABS,ioos:station:wmo:42046:1,2007-06-03T10:30:00Z,27.8903,-94.0367,2.0,320.6931612,20.45850679,-99999.0,'11111222,11111222,99999999' 
TABS,ioos:station:wmo:42046:1,2007-06-03T11:00:00Z,27.8903,-94.0367,2.0,325.4400631,22.82854573,-99999.0,'11111222,11111222,99999999' 
TABS,ioos:station:wmo:42046:1,2007-06-03T11:30:00Z,27.8903,-94.0367,2.0,336.1105267,20.79126018,-99999.0,'11111222,11111222,99999999' 
TABS,ioos:station:wmo:42046:1,2007-06-03T12:00:00Z,27.8903,-94.0367,2.0,344.2060606,18.73741978,-99999.0,'11111222,11111222,99999999' 
TABS,ioos:station:wmo:42046:1,2007-06-03T12:30:00Z,27.8903,-94.0367,2.0,355.0483332,19.46264371,-99999.0,'11111222,11111222,99999999' 
TABS,ioos:station:wmo:42046:1,2007-06-03T13:00:00Z,27.8903,-94.0367,2.0,358.211251,18.89921162,-99999.0,'11111222,11111222,99999999' 
TABS,ioos:station:wmo:42046:1,2007-06-03T13:30:00Z,27.8903,-94.0367,2.0,13.4095148,14.18675791,-99999.0,'11111222,11111222,99999999' 
TABS,ioos:station:wmo:42046:1,2007-06-03T14:00:00Z,27.8903,-94.0367,2.0,21.46203149,13.47429033,-99999.0,'11111222,11111222,99999999' 
TABS,ioos:station:wmo:42046:1,2007-06-03T14:30:00Z,27.8903,-94.0367,2.0,30.1727231,12.29590582,-99999.0,'11111222,11111222,99999999' 
TABS,ioos:station:wmo:42046:1,2007-06-03T15:00:00Z,27.8903,-94.0367,2.0,44.23620855,11.66829893,-99999.0,'11111222,11111222,99999999' 
TABS,ioos:station:wmo:42046:1,2007-06-03T15:30:00Z,27.8903,-94.0367,2.0,56.06357989,11.60720897,-99999.0,'11111222,11111222,99999999' 
TABS,ioos:station:wmo:42046:1,2007-06-03T16:00:00Z,27.8903,-94.0367,2.0,72.56516608,12.68266534,-99999.0,'11111222,11111222,99999999' 
TABS,ioos:station:wmo:42046:1,2007-06-03T16:30:00Z,27.8903,-94.0367,2.0,75.28628326,12.71703189,-99999.0,'11111222,11111222,99999999' 
TABS,ioos:station:wmo:42046:1,2007-06-03T17:00:00Z,27.8903,-94.0367,2.0,80.02537117,11.95064015,-99999.0,'11111222,11111222,99999999' 
TABS,ioos:station:wmo:42046:1,2007-06-03T17:30:00Z,27.8903,-94.0367,2.0,87.98829186,13.95860308,-99999.0,'11111222,11111222,99999999' 
TABS,ioos:station:wmo:42046:1,2007-06-03T18:00:00Z,27.8903,-94.0367,2.0,100.0537599,14.49254291,-99999.0,'11111222,11111222,99999999' 
TABS,ioos:station:wmo:42046:1,2007-06-03T18:30:00Z,27.8903,-94.0367,2.0,112.5128958,15.25233425,-99999.0,'11111222,11111222,99999999' 
TABS,ioos:station:wmo:42046:1,2007-06-03T19:00:00Z,27.8903,-94.0367,2.0,114.9306382,16.46415804,-99999.0,'11111222,11111222,99999999' 
TABS,ioos:station:wmo:42046:1,2007-06-03T19:30:00Z,27.8903,-94.0367,2.0,118.1339271,16.98706861,-99999.0,'11111222,11111222,99999999' 
TABS,ioos:station:wmo:42046:1,2007-06-03T20:00:00Z,27.8903,-94.0367,2.0,128.1749277,18.0886926,-99999.0,'11111222,11111222,99999999' 
TABS,ioos:station:wmo:42046:1,2007-06-03T20:30:00Z,27.8903,-94.0367,2.0,131.4380211,19.23510593,-99999.0,'11111222,11111222,99999999' 
TABS,ioos:station:wmo:42046:1,2007-06-03T21:00:00Z,27.8903,-94.0367,2.0,135.6080277,21.9851882,-99999.0,'11111222,11111222,99999999' 
TABS,ioos:station:wmo:42046:1,2007-06-03T21:30:00Z,27.8903,-94.0367,2.0,138.0291379,23.2822035,-99999.0,'11111222,11111222,99999999' 
TABS,ioos:station:wmo:42046:1,2007-06-03T22:00:00Z,27.8903,-94.0367,2.0,142.2305409,21.40463735,-99999.0,'11111222,11111222,99999999' 
TABS,ioos:station:wmo:42046:1,2007-06-03T22:30:00Z,27.8903,-94.0367,2.0,149.8621863,21.53045517,-99999.0,'11111222,11111222,99999999' 
TABS,ioos:station:wmo:42046:1,2007-06-03T23:00:00Z,27.8903,-94.0367,2.0,153.1007189,23.00953063,-99999.0,'11111222,11111222,99999999' 
TABS,ioos:station:wmo:42046:1,2007-06-03T23:30:00Z,27.8903,-94.0367,2.0,162.9862644,24.09448277,-99999.0,'11111222,11111222,99999999' 
TABS,ioos:station:wmo:42046:1,2007-06-04T00:00:00Z,27.8903,-94.0367,2.0,168.9434024,25.70715465,-99999.0,'11111222,11111222,99999999' 
TABS,ioos:station:wmo:42046:1,2007-06-04T00:30:00Z,27.8903,-94.0367,2.0,178.7632231,25.48593534,-99999.0,'11111222,11111222,99999999' 
TABS,ioos:station:wmo:42046:1,2007-06-04T01:00:00Z,27.8903,-94.0367,2.0,181.5365607,23.11831525,-99999.0,'11111222,11111222,99999999' 
TABS,ioos:station:wmo:42046:1,2007-06-04T01:30:00Z,27.8903,-94.0367,2.0,191.3491826,19.91952058,-99999.0,'11111222,11111222,99999999' 
TABS,ioos:station:wmo:42046:1,2007-06-04T02:00:00Z,27.8903,-94.0367,2.0,196.8808759,19.00911623,-99999.0,'11111222,11111222,99999999' 
TABS,ioos:station:wmo:42046:1,2007-06-04T02:30:00Z,27.8903,-94.0367,2.0,209.7556119,19.36306277,-99999.0,'11111222,11111222,99999999' 
TABS,ioos:station:wmo:42046:1,2007-06-04T03:00:00Z,27.8903,-94.0367,2.0,228.4481467,17.98600845,-99999.0,'11111222,11111222,99999999' 
TABS,ioos:station:wmo:42046:1,2007-06-04T03:30:00Z,27.8903,-94.0367,2.0,236.3564196,20.3602775,-99999.0,'11111222,11111222,99999999' 
TABS,ioos:station:wmo:42046:1,2007-06-04T04:00:00Z,27.8903,-94.0367,2.0,241.2678165,20.3448765,-99999.0,'11111222,11111222,99999999' 
TABS,ioos:station:wmo:42046:1,2007-06-04T04:30:00Z,27.8903,-94.0367,2.0,248.8790948,20.31464742,-99999.0,'11111222,11111222,99999999' 
TABS,ioos:station:wmo:42046:1,2007-06-04T05:00:00Z,27.8903,-94.0367,2.0,261.7677274,19.90508729,-99999.0,'11111222,11111222,99999999' 
TABS,ioos:station:wmo:42046:1,2007-06-04T05:30:00Z,27.8903,-94.0367,2.0,277.3138924,20.73871983,-99999.0,'11111222,11111222,99999999' 
TABS,ioos:station:wmo:42046:1,2007-06-04T06:00:00Z,27.8903,-94.0367,2.0,284.9993774,20.20849574,-99999.0,'11111222,11111222,99999999' 
TABS,ioos:station:wmo:42046:1,2007-06-04T06:30:00Z,27.8903,-94.0367,2.0,301.8089678,16.05058254,-99999.0,'11111222,11111222,99999999' 
TABS,ioos:station:wmo:42046:1,2007-06-04T07:00:00Z,27.8903,-94.0367,2.0,296.1721822,17.5937972,-99999.0,'11111222,11111222,99999999' 
TABS,ioos:station:wmo:42046:1,2007-06-04T07:30:00Z,27.8903,-94.0367,2.0,304.3213935,17.62944128,-99999.0,'11111222,11111222,99999999' 
TABS,ioos:station:wmo:42046:1,2007-06-04T08:00:00Z,27.8903,-94.0367,2.0,305.9204803,16.89232074,-99999.0,'11111222,11111222,99999999' 
TABS,ioos:station:wmo:42046:1,2007-06-04T08:30:00Z,27.8903,-94.0367,2.0,318.3584991,17.26183362,-99999.0,'11111222,11111222,99999999' 
TABS,ioos:station:wmo:42046:1,2007-06-04T09:00:00Z,27.8903,-94.0367,2.0,323.0240883,19.4020334,-99999.0,'11111222,11111222,99999999' 
TABS,ioos:station:wmo:42046:1,2007-06-04T09:30:00Z,27.8903,-94.0367,2.0,335.6698015,17.54858969,-99999.0,'11111222,11111222,99999999' 
TABS,ioos:station:wmo:42046:1,2007-06-04T10:00:00Z,27.8903,-94.0367,2.0,341.3446253,15.59963141,-99999.0,'11111222,11111222,99999999' 
TABS,ioos:station:wmo:42046:1,2007-06-04T10:30:00Z,27.8903,-94.0367,2.0,353.8178724,16.43558639,-99999.0,'11111222,11111222,99999999' 
TABS,ioos:station:wmo:42046:1,2007-06-04T11:00:00Z,27.8903,-94.0367,2.0,4.674973047,17.66877755,-99999.0,'11111222,11111222,99999999' 
TABS,ioos:station:wmo:42046:1,2007-06-04T11:30:00Z,27.8903,-94.0367,2.0,16.89558416,19.30318627,-99999.0,'11111222,11111222,99999999' 
TABS,ioos:station:wmo:42046:1,2007-06-04T12:00:00Z,27.8903,-94.0367,2.0,16.50091389,16.86454862,-99999.0,'11111222,11111222,99999999' 
TABS,ioos:station:wmo:42046:1,2007-06-04T12:30:00Z,27.8903,-94.0367,2.0,19.69775454,19.37365479,-99999.0,'11111222,11111222,99999999' 
TABS,ioos:station:wmo:42046:1,2007-06-04T13:00:00Z,27.8903,-94.0367,2.0,27.64354632,18.77287937,-99999.0,'11111222,11111222,99999999' 
TABS,ioos:station:wmo:42046:1,2007-06-04T13:30:00Z,27.8903,-94.0367,2.0,34.55551761,17.63038287,-99999.0,'11111222,11111222,99999999' 
TABS,ioos:station:wmo:42046:1,2007-06-04T14:00:00Z,27.8903,-94.0367,2.0,36.23479808,17.67908651,-99999.0,'11111222,11111222,99999999' 
TABS,ioos:station:wmo:42046:1,2007-06-04T14:30:00Z,27.8903,-94.0367,2.0,46.78874214,19.93598254,-99999.0,'11111222,11111222,99999999' 
TABS,ioos:station:wmo:42046:1,2007-06-04T15:00:00Z,27.8903,-94.0367,2.0,50.89823463,20.84981775,-99999.0,'11111222,11111222,99999999' 
TABS,ioos:station:wmo:42046:1,2007-06-04T15:30:00Z,27.8903,-94.0367,2.0,57.64655632,23.90021339,-99999.0,'11111222,11111222,99999999' 
TABS,ioos:station:wmo:42046:1,2007-06-04T16:00:00Z,27.8903,-94.0367,2.0,64.0555894,25.60000781,-99999.0,'11111222,11111222,99999999' 